Regional Weather Roundup
Issued by NWS

Home | Current Version | Previous Version | Text Only | Print | Product List | Glossary On
Versions: 1 2 3 4 5 6 7 8 9 10 11 12 13 14 15 16 17 18 19 20 21 22 23 24 25 26 27
000
ASCA42 TJSJ 270410
RWRPR
PUERTO RICO/U.S. VIRGIN ISLANDS HOURLY WEATHER ROUNDUP
NATIONAL WEATHER SERVICE SAN JUAN PR
1200 AM AST SAT AUG 27 2016

PRZ001>002-007>008-010-270500-
PUERTO RICO

CITY           SKY/WX    TMP DP  RH WIND       PRES   REMARKS
SAN JUAN LMM   PTCLDY    81  75  83 CALM      29.98F
PONCE          MOCLDY    75  73  94 CALM      29.98S
CEIBA          CLEAR     77  77 100 CALM      29.99F
$$

VIZ001>002-270500-
U.S. VIRGIN ISLANDS

CITY           SKY/WX    TMP DP  RH WIND       PRES   REMARKS
CHRISTIANSTED  CLEAR     79  75  89 N6        29.97F
$$

HOURLY WEATHER ROUNDUP FOR THE NEWS MEDIA

CITY           SKY/WX    TMP DP  RH WIND       PRES   REMARKS
ORLANDO        CLOUDY    80  74  81 NE6       30.01S
NEW YORK       PTCLDY    82  65  56 N10       30.07R
NEWARK         PTCLDY    81  63  54 N10       30.07R
CHICAGO        CLOUDY    72  62  71 NE8       30.12S
HARTFORD       CLEAR     72  69  90 CALM      30.02R
BOSTON         CLEAR     80  63  55 N7        30.04R
DALLAS         MOCLDY    77  70  79 SE7       30.02R
PHILADELPHIA   CLEAR     81  65  58 N6        30.09R
LOS ANGELES    PTCLDY    65  58  78 W9        29.96R
WASHINGTON DC  PTCLDY    81  71  71 N3        30.10S



USA.gov is the U.S. government's official web portal to all federal, state and local government web resources and services.